Location: Asheville, NC
(35.6000°N, 82.5500°W)
Time: 16:17:12
(UTC-05:00)

Vanguard 3 - Pass Details

Date: 13 February 2018
Orbit: 508 x 3264 km, 33.3° (Epoch: 21 February)

Event Time Altitude Azimuth Distance (km) Brightness Sun altitude
Rises 00:53:40 0° 269° (W) 4,051 - -67.7°
Reaches altitude 10° 00:56:42 10° 255° (WSW) 3,442 - -67.6°
Maximum altitude 01:03:37 24° 206° (SSW) 3,235 - -67.3°
Drops below altitude 10° 01:13:42 10° 160° (SSE) 5,178 - -66.8°
Sets 01:19:48 0° 149° (SSE) 6,633 - -66.4°
